DW3224 Weather Reports


Display with metric or nautical units.
time (UTC)temp
F
wind
direction
speed
MPH
gust
MPH
rain 1hr
in
rain 24hr
in
rain mn
in
humidity
%
barometer
mb
20260503204005 66 0 0.0 0.0 0.00 0.00 0.00 66 1013.0
20260503203505 65 0 0.0 0.0 0.00 0.00 0.00 67 1013.0
20260503203005 65 0 0.0 0.0 0.00 0.00 0.00 68 1012.9
20260503202505 64 0 0.0 0.0 0.00 0.00 0.00 69 1013.0
20260503202005 63 0 0.0 0.0 0.00 0.00 0.00 71 1013.0
20260503201505 62 0 0.0 0.0 0.00 0.00 0.00 72 1013.1
20260503200505 63 0 0.0 0.0 0.00 0.00 0.00 68 1013.2
20260503200006 63 0 0.0 0.0 0.00 0.00 0.00 68 1013.2
20260503195005 64 0 0.0 0.0 0.00 0.00 0.00 65 1013.3
20260503194005 66 0 0.0 0.0 0.00 0.00 0.00 65 1013.4
20260503193505 67 0 0.0 0.0 0.00 0.00 0.00 63 1013.4
20260503193005 67 0 0.0 0.0 0.00 0.00 0.00 64 1013.5
20260503192505 67 0 0.0 0.0 0.00 0.00 0.00 64 1013.6
20260503191505 65 0 0.0 0.0 0.00 0.00 0.00 70 1013.7
20260503191006 64 0 0.0 0.0 0.00 0.00 0.00 69 1013.7
20260503190005 64 0 0.0 0.0 0.00 0.00 0.00 68 1013.7
20260503185505 63 0 0.0 0.0 0.00 0.00 0.00 68 1013.8
20260503185005 64 0 0.0 0.0 0.00 0.00 0.00 68 1013.9
20260503184005 63 0 0.0 0.0 0.00 0.00 0.00 70 1014.0
20260503183505 62 0 0.0 0.0 0.00 0.00 0.00 70 1014.1
20260503183005 63 0 0.0 0.0 0.00 0.00 0.00 70 1014.1
20260503182505 63 0 0.0 0.0 0.00 0.00 0.00 69 1014.2
20260503182006 63 0 0.0 0.0 0.00 0.00 0.00 71 1014.3
20260503181506 62 0 0.0 0.0 0.00 0.00 0.00 70 1014.2
20260503180005 61 0 0.0 0.0 0.00 0.00 0.00 71 1014.4
20260503175505 61 0 0.0 0.0 0.00 0.00 0.00 73 1014.5
20260503175005 61 0 0.0 0.0 0.00 0.00 0.00 72 1014.5
20260503174505 61 0 0.0 0.0 0.00 0.00 0.00 72 1014.5
20260503174005 61 0 0.0 0.0 0.00 0.00 0.00 74 1014.6
20260503173505 60 0 0.0 0.0 0.00 0.00 0.00 75 1014.6
20260503173005 60 0 0.0 0.0 0.00 0.00 0.00 74 1014.7
20260503172505 60 0 0.0 0.0 0.00 0.00 0.00 74 1014.7
20260503172006 60 0 0.0 0.0 0.00 0.00 0.00 74 1014.7
20260503171505 61 0 0.0 0.0 0.00 0.00 0.00 73 1014.6
20260503171004 61 0 0.0 0.0 0.00 0.00 0.00 74 1014.7
20260503170505 61 0 0.0 0.0 0.00 0.00 0.00 74 1014.7
20260503151005 58 0 0.0 0.0 0.00 0.00 0.00 78 1014.9
20260503131005 57 0 0.0 0.0 0.00 0.00 0.00 75 1014.5
20260503130505 57 0 0.0 0.0 0.00 0.00 0.00 75 1014.5
20260503110505 60 0 0.0 0.0 0.00 0.00 0.00 69 1014.7
20260503090505 59 0 0.0 0.0 0.00 0.00 0.00 69 1014.5
20260503081505 59 0 0.0 0.0 0.00 0.00 0.00 69 1014.5
20260503080505 59 0 0.0 0.0 0.00 0.00 0.00 69 1014.5
20260503072505 62 0 0.0 0.0 0.00 0.00 0.00 64 1014.5
20260503071506 62 0 0.0 0.0 0.00 0.00 0.00 64 1014.4
20260503071005 63 0 0.0 0.0 0.00 0.00 0.00 63 1014.4
20260503054505 63 0 0.0 0.0 0.00 0.00 0.00 63 1014.3
20260503054005 63 0 0.0 0.0 0.00 0.00 0.00 63 1014.3
20260503053504 63 0 0.0 0.0 0.00 0.00 0.00 62 1014.3
20260503053005 64 0 0.0 0.0 0.00 0.00 0.00 62 1014.3
20260503052505 64 0 0.0 0.0 0.00 0.00 0.00 61 1014.3
20260503052005 64 0 0.0 0.0 0.00 0.00 0.00 61 1014.4
20260503051505 64 0 0.0 0.0 0.00 0.00 0.00 61 1014.4
20260503051005 64 0 0.0 0.0 0.00 0.00 0.00 61 1014.4
20260503045505 63 0 0.0 0.0 0.00 0.00 0.00 62 1014.3
20260503045004 63 0 0.0 0.0 0.00 0.00 0.00 62 1014.3
20260503044504 63 0 0.0 0.0 0.00 0.00 0.00 62 1014.2
20260503044005 63 0 0.0 0.0 0.00 0.00 0.00 62 1014.2
20260503043505 63 0 0.0 0.0 0.00 0.00 0.00 62 1014.2
20260503043004 63 0 0.0 0.0 0.00 0.00 0.00 62 1014.1
20260503042504 63 0 0.0 0.0 0.00 0.00 0.00 62 1014.0
20260503042005 63 0 0.0 0.0 0.00 0.00 0.00 61 1014.1
20260503041505 63 0 0.0 0.0 0.00 0.00 0.00 61 1014.0
20260503041005 64 0 0.0 0.0 0.00 0.00 0.00 60 1014.0
20260503040505 63 0 0.0 0.0 0.00 0.00 0.00 61 1014.0
20260503040005 64 0 0.0 0.0 0.00 0.00 0.00 60 1014.0
20260503035505 64 0 0.0 0.0 0.00 0.00 0.00 60 1013.9
20260503035005 64 0 0.0 0.0 0.00 0.00 0.00 60 1013.9
20260503034504 64 0 0.0 0.0 0.00 0.00 0.00 59 1013.8
20260503033505 66 0 0.0 0.0 0.00 0.00 0.00 58 1013.6
20260503032505 67 0 0.0 0.0 0.00 0.00 0.00 54 1013.5
20260503032004 67 0 0.0 0.0 0.00 0.00 0.00 55 1013.5
20260503031004 68 0 0.0 0.0 0.00 0.00 0.00 53 1013.4
20260503030505 68 0 0.0 0.0 0.00 0.00 0.00 54 1013.4
20260503025505 68 0 0.0 0.0 0.00 0.00 0.00 55 1013.4
20260503024505 67 0 0.0 0.0 0.00 0.00 0.00 57 1013.4
20260503024004 67 0 0.0 0.0 0.00 0.00 0.00 57 1013.5
20260503023504 67 0 0.0 0.0 0.00 0.00 0.00 56 1013.5
20260503023005 67 0 0.0 0.0 0.00 0.00 0.00 56 1013.5
20260503022004 68 0 0.0 0.0 0.00 0.00 0.00 55 1013.5
20260503021505 68 0 0.0 0.0 0.00 0.00 0.00 56 1013.4
20260503020505 68 0 0.0 0.0 0.00 0.00 0.00 56 1013.5
20260503015504 68 0 0.0 0.0 0.00 0.00 0.00 56 1013.6
20260503015005 68 0 0.0 0.0 0.00 0.00 0.00 56 1013.6
20260503014504 68 0 0.0 0.0 0.00 0.00 0.00 57 1013.7
20260503014004 67 0 0.0 0.0 0.00 0.00 0.00 58 1013.8
20260503013504 67 0 0.0 0.0 0.00 0.00 0.00 59 1013.8
20260503013004 67 0 0.0 0.0 0.00 0.00 0.00 59 1013.7
20260503012505 67 0 0.0 0.0 0.00 0.00 0.00 59 1013.8
20260503012005 67 0 0.0 0.0 0.00 0.00 0.00 59 1013.9
20260503011005 67 0 0.0 0.0 0.00 0.00 0.00 59 1014.0
20260503010504 67 0 0.0 0.0 0.00 0.00 0.00 59 1014.0
20260503010005 67 0 0.0 0.0 0.00 0.00 0.00 60 1014.0
20260503005505 67 0 0.0 0.0 0.00 0.00 0.00 60 1014.0
20260503005005 66 0 0.0 0.0 0.00 0.00 0.00 61 1014.1
20260503003504 66 0 0.0 0.0 0.00 0.00 0.00 61 1014.1
20260503003004 65 0 0.0 0.0 0.00 0.00 0.00 61 1014.1
20260503002505 65 0 0.0 0.0 0.00 0.00 0.00 63 1014.1
20260503002005 65 0 0.0 0.0 0.00 0.00 0.00 63 1014.0
20260503001505 65 0 0.0 0.0 0.00 0.00 0.00 65 1014.1
20260503001005 65 0 0.0 0.0 0.00 0.00 0.00 65 1014.2
20260503000504 65 0 0.0 0.0 0.00 0.00 0.00 65 1014.2
20260503000004 65 0 0.0 0.0 0.00 0.00 0.00 65 1014.2
20260502235505 64 0 0.0 0.0 0.00 0.00 0.00 66 1014.3
20260502235005 64 0 0.0 0.0 0.00 0.00 0.00 66 1014.4
20260502234505 64 0 0.0 0.0 0.00 0.00 0.00 66 1014.4
20260502234005 64 0 0.0 0.0 0.00 0.00 0.00 68 1014.4
20260502233504 64 0 0.0 0.0 0.00 0.00 0.00 69 1014.6
20260502231005 62 0 0.0 0.0 0.00 0.00 0.00 73 1014.9
20260502230505 62 0 0.0 0.0 0.00 0.00 0.00 72 1015.0
20260502230005 62 0 0.0 0.0 0.00 0.00 0.00 72 1015.0
20260502225505 62 0 0.0 0.0 0.00 0.00 0.00 72 1015.0
20260502225005 62 0 0.0 0.0 0.00 0.00 0.00 73 1015.2
20260502224505 61 0 0.0 0.0 0.00 0.00 0.00 74 1015.2
20260502224005 61 0 0.0 0.0 0.00 0.00 0.00 74 1015.4
20260502223505 61 0 0.0 0.0 0.00 0.00 0.00 73 1015.4
20260502223004 61 0 0.0 0.0 0.00 0.00 0.00 73 1015.4
20260502222504 62 0 0.0 0.0 0.00 0.00 0.00 73 1015.5
20260502221004 60 0 0.0 0.0 0.00 0.00 0.00 76 1015.7
20260502220005 61 0 0.0 0.0 0.00 0.00 0.00 75 1015.9
20260502215505 61 0 0.0 0.0 0.00 0.00 0.00 76 1016.0
20260502215005 61 0 0.0 0.0 0.00 0.00 0.00 75 1016.0
20260502214505 61 0 0.0 0.0 0.00 0.00 0.00 75 1016.0
20260502213505 62 0 0.0 0.0 0.00 0.00 0.00 75 1016.1
20260502212005 62 0 0.0 0.0 0.00 0.00 0.00 75 1016.2
20260502211505 62 0 0.0 0.0 0.00 0.00 0.00 75 1016.2
20260502211004 63 0 0.0 0.0 0.00 0.00 0.00 74 1016.2
20260502210505 62 0 0.0 0.0 0.00 0.00 0.00 75 1016.2
20260502205504 62 0 0.0 0.0 0.00 0.00 0.00 75 1016.2
20260502204504 61 0 0.0 0.0 0.00 0.00 0.00 77 1016.3